AU298 Weather Reports


Display with metric or nautical units.
time (UTC)temp
F
wind
direction
speed
MPH
gust
MPH
rain 1hr
in
rain 24hr
in
rain mn
in
humidity
%
barometer
mb
20260505032511 34 321 1.0 0.0 0.02 0.21 0.21 88 1003.9
20260505031011 34 310 3.0 1.0 0.02 0.21 0.21 87 1003.9
20260505030511 34 277 4.0 1.0 0.02 0.21 0.21 87 1003.9
20260505030012 34 304 2.0 1.0 0.02 0.21 0.21 87 1003.8
20260505025511 35 335 3.0 1.0 0.01 0.20 0.20 88 1003.8
20260505025011 34 304 2.0 1.0 0.01 0.20 0.20 88 1003.7
20260505024012 34 313 3.0 1.0 0.01 0.20 0.20 88 1003.5
20260505023511 34 318 1.0 1.0 0.01 0.20 0.20 88 1003.5
20260505023011 34 319 4.0 1.0 0.00 0.19 0.19 88 1003.4
20260505022511 34 329 4.0 1.0 0.00 0.19 0.19 88 1003.3
20260505022011 34 305 2.0 1.0 0.00 0.19 0.19 88 1003.2
20260505021511 34 306 3.0 1.0 0.00 0.19 0.19 88 1003.2
20260505021012 34 292 5.0 1.0 0.01 0.19 0.19 87 1003.1
20260505020511 34 315 6.0 1.0 0.01 0.19 0.19 87 1003.0
20260505020011 34 323 5.0 1.0 0.02 0.19 0.19 87 1002.9
20260505015511 34 316 4.0 1.0 0.02 0.19 0.19 87 1002.8
20260505014512 34 350 4.0 1.0 0.02 0.19 0.19 87 1002.7
20260505014011 35 323 6.0 1.0 0.02 0.19 0.19 87 1002.7
20260505013511 35 326 4.0 1.0 0.02 0.19 0.19 86 1002.6
20260505013011 35 342 5.0 1.0 0.02 0.19 0.19 86 1002.3
20260505012512 35 348 5.0 1.0 0.02 0.19 0.19 86 1003.3
20260505012011 35 306 5.0 1.0 0.02 0.19 0.19 86 1003.3
20260505011511 35 347 4.0 1.0 0.02 0.19 0.19 86 1003.2
20260505011012 35 319 4.0 1.0 0.01 0.18 0.18 86 1003.1
20260505010511 35 343 6.0 2.0 0.01 0.18 0.18 85 1003.1
20260505005512 36 279 10.0 2.0 0.00 0.17 0.17 81 1003.0
20260505005011 37 335 5.0 1.0 0.00 0.17 0.17 81 1002.8
20260505004511 37 259 1.0 1.0 0.00 0.17 0.17 82 1002.7
20260505004011 37 304 9.0 1.0 0.00 0.17 0.17 83 1002.5
20260505003511 36 295 4.0 2.0 0.00 0.17 0.17 83 1002.5
20260505003011 36 311 7.0 2.0 0.00 0.17 0.17 82 1002.4
20260505002011 37 338 4.0 2.0 0.00 0.17 0.17 79 1002.5
20260505001011 38 263 5.0 2.0 0.01 0.17 0.17 79 1002.4
20260505000511 38 323 9.0 2.0 0.01 0.17 0.17 78 1002.2
20260505000011 38 297 6.0 2.0 0.01 0.17 0.17 80 1002.2
20260504235511 38 278 4.0 2.0 0.01 0.17 0.17 80 1002.2
20260504235012 38 235 8.0 1.0 0.01 0.17 0.17 82 1002.0
20260504234511 37 315 3.0 1.0 0.01 0.17 0.17 83 1002.0
20260504233512 36 276 2.0 1.0 0.01 0.17 0.17 86 1001.9
20260504233012 36 299 4.0 1.0 0.02 0.17 0.17 86 1002.0
20260504232011 35 283 7.0 3.0 0.02 0.17 0.17 86 1002.0
20260504231511 35 297 10.0 3.0 0.01 0.16 0.16 84 1001.9
20260504231011 39 309 9.0 2.0 0.01 0.16 0.16 74 1001.8
20260504230511 39 229 6.0 2.0 0.01 0.16 0.16 74 1001.5
20260504230011 39 292 9.0 2.0 0.01 0.16 0.16 76 1001.4
20260504225011 39 316 6.0 2.0 0.01 0.16 0.16 77 1001.4
20260504224511 38 330 7.0 2.0 0.01 0.16 0.16 78 1001.4
20260504224012 38 277 9.0 2.0 0.01 0.16 0.16 80 1001.4
20260504223011 39 279 6.0 2.0 0.00 0.15 0.15 76 1001.3
20260504222511 39 276 12.0 2.0 0.00 0.15 0.15 76 1001.0
20260504222011 39 302 13.0 2.0 0.00 0.15 0.15 76 1000.9
20260504221511 38 303 8.0 2.0 0.01 0.15 0.15 76 1000.9
20260504221011 39 295 13.0 2.0 0.01 0.15 0.15 74 1000.8
20260504220512 40 282 12.0 2.0 0.01 0.15 0.15 74 1000.6
20260504215511 40 328 9.0 3.0 0.01 0.15 0.15 73 1000.3
20260504215011 41 238 16.0 2.0 0.01 0.15 0.15 72 1000.3
20260504214511 41 258 11.0 2.0 0.01 0.15 0.15 71 1000.2
20260504214011 41 300 5.0 2.0 0.01 0.15 0.15 72 1000.1
20260504213511 41 274 4.0 2.0 0.01 0.15 0.15 73 1000.1
20260504213012 41 266 5.0 2.0 0.01 0.15 0.15 75 1000.1
20260504212511 40 321 6.0 2.0 0.01 0.15 0.15 75 1000.0
20260504212011 39 236 12.0 2.0 0.01 0.15 0.15 78 1000.1
20260504211511 41 245 20.0 2.0 0.00 0.14 0.14 71 999.9
20260504211011 43 275 2.0 2.0 0.00 0.14 0.14 66 999.7
20260504205511 41 283 7.0 2.0 0.00 0.14 0.14 72 999.6
20260504205011 41 295 13.0 3.0 0.00 0.14 0.14 73 999.6
20260504203511 42 18 6.0 2.0 0.00 0.14 0.14 68 999.2
20260504203011 44 333 13.0 2.0 0.00 0.14 0.14 63 999.2
20260504202511 43 252 12.0 2.0 0.00 0.14 0.14 64 999.1
20260504202011 42 327 7.0 2.0 0.00 0.14 0.14 65 999.1
20260504201511 42 292 12.0 3.0 0.00 0.14 0.14 66 999.0
20260504201011 42 44 7.0 2.0 0.00 0.14 0.14 67 998.9
20260504200011 44 274 5.0 2.0 0.00 0.14 0.14 63 998.7
20260504195011 43 335 8.0 2.0 0.00 0.14 0.14 67 998.6
20260504194511 44 260 5.0 2.0 0.00 0.14 0.14 67 998.5
20260504194011 43 282 17.0 3.0 0.00 0.14 0.14 64 998.4
20260504193511 43 338 14.0 3.0 0.00 0.14 0.14 63 998.2
20260504193011 43 20 18.0 3.0 0.00 0.14 0.14 63 998.2
20260504192511 44 330 9.0 2.0 0.00 0.14 0.14 64 998.1
20260504192011 43 272 11.0 2.0 0.00 0.14 0.14 65 998.1
20260504191511 44 297 18.0 2.0 0.00 0.14 0.14 69 998.2
20260504190512 41 284 8.0 2.0 0.00 0.14 0.14 79 998.1
20260504190011 40 319 12.0 2.0 0.00 0.14 0.14 79 998.0
20260504185510 41 307 9.0 2.0 0.00 0.14 0.14 78 997.9
20260504185011 41 265 8.0 2.0 0.00 0.14 0.14 76 997.8
20260504184512 40 294 16.0 2.0 0.00 0.14 0.14 76 997.8
20260504184011 41 311 16.0 2.0 0.00 0.14 0.14 73 997.8
20260504183511 42 309 10.0 2.0 0.00 0.14 0.14 71 997.6
20260504183011 42 311 6.0 2.0 0.00 0.14 0.14 74 997.5
20260504182510 41 310 11.0 2.0 0.00 0.14 0.14 78 997.5
20260504182011 40 20 13.0 2.0 0.00 0.14 0.14 78 997.3
20260504181511 41 224 11.0 2.0 0.00 0.14 0.14 74 997.1
20260504181012 42 269 7.0 2.0 0.00 0.14 0.14 74 997.0
20260504180511 41 275 16.0 2.0 0.00 0.14 0.14 74 997.0
20260504180011 41 264 5.0 2.0 0.00 0.14 0.14 76 996.8
20260504175511 42 310 10.0 2.0 0.00 0.14 0.14 76 996.9
20260504175011 42 265 11.0 2.0 0.00 0.14 0.14 73 996.7
20260504174510 42 301 3.0 2.0 0.00 0.14 0.14 73 996.5
20260504174011 42 265 9.0 3.0 0.00 0.14 0.14 73 996.4
20260504173511 42 292 20.0 3.0 0.00 0.14 0.14 74 996.6
20260504173011 43 329 16.0 3.0 0.00 0.14 0.14 72 996.4
20260504172511 43 276 4.0 3.0 0.00 0.14 0.14 73 996.3
20260504172012 43 294 10.0 3.0 0.00 0.14 0.14 71 996.3
20260504171511 42 300 7.0 2.0 0.01 0.14 0.14 72 996.3
20260504170511 41 324 14.0 2.0 0.01 0.14 0.14 78 996.4
20260504151011 41 299 13.0 2.0 0.00 0.13 0.13 80 994.6
20260504150511 41 344 7.0 2.0 0.00 0.13 0.13 82 994.5
20260504141011 44 335 3.0 1.0 0.00 0.13 0.13 83 993.3
20260504140511 43 293 9.0 2.0 0.00 0.13 0.13 83 993.3
20260504130511 44 300 6.0 1.0 0.00 0.13 0.13 86 992.7
20260504110510 43 313 9.0 1.0 0.13 0.13 0.13 87 992.1
20260504081510 57 179 4.0 2.0 0.00 0.00 0.00 44 990.4
20260504081010 57 240 6.0 1.0 0.00 0.00 0.00 44 990.7
20260504080510 57 240 1.0 2.0 0.00 0.00 0.00 44 990.9
20260504050511 56 222 4.0 1.0 0.00 0.00 0.00 41 995.5
20260504050011 56 223 0.0 1.0 0.00 0.00 0.00 41 995.7
20260504045511 57 167 6.0 2.0 0.00 0.00 0.00 40 995.7
20260504045010 57 181 12.0 2.0 0.00 0.00 0.00 40 996.0
20260504044510 57 179 13.0 2.0 0.00 0.00 0.00 40 996.1
20260504044011 57 221 9.0 2.0 0.00 0.00 0.00 40 996.4
20260504043511 57 170 7.0 2.0 0.00 0.00 0.00 40 996.5
20260504043011 57 243 5.0 2.0 0.00 0.00 0.00 40 996.6
20260504042511 57 209 2.0 2.0 0.00 0.00 0.00 40 996.8
20260504042011 57 171 3.0 2.0 0.00 0.00 0.00 39 996.8
20260504041511 57 189 4.0 1.0 0.00 0.00 0.00 39 997.1
20260504041011 57 229 7.0 1.0 0.00 0.00 0.00 39 997.3
20260504040510 57 153 10.0 1.0 0.00 0.00 0.00 40 997.3
20260504040011 57 210 7.0 1.0 0.00 0.00 0.00 39 997.5
20260504035010 57 198 5.0 1.0 0.00 0.00 0.00 39 997.9
20260504034510 57 141 5.0 1.0 0.00 0.00 0.00 39 997.9
20260504033011 56 165 2.0 1.0 0.00 0.00 0.00 40 998.5